Time,TemperatureF,DewpointF,PressureIn,WindDirection,WindDirectionDegrees,WindSpeedMPH,WindSpeedGustMPH,Humidity,HourlyPrecipIn,Conditions,Clouds,dailyrainin,SoftwareType,DateUTC
2013-11-07 00:01:00,67.1,66.8,29.98,NNW,338,2.3,2.3,99,0.00,CLR,,0.00,WeatherDisplay:10.37,2013-11-07 05:01:00,
2013-11-07 00:03:00,67.1,66.8,29.98,NNW,338,1.7,1.7,99,0.00,CLR,,0.00,WeatherDisplay:10.37,2013-11-07 05:03:00,
2013-11-07 00:04:00,67.1,66.8,29.98,NNW,338,1.7,1.7,99,0.00,CLR,,0.00,WeatherDisplay:10.37,2013-11-07 05:04:00,
2013-11-07 00:06:00,67.1,66.8,29.98,NNW,338,1.1,1.1,99,0.00,CLR,,0.00,WeatherDisplay:10.37,2013-11-07 05:06:00,
2013-11-07 00:11:00,67.1,66.8,29.98,NNW,338,0.0,0.0,99,0.00,CLR,,0.00,WeatherDisplay:10.37,2013-11-07 05:11:00,
2013-11-07 00:16:00,66.9,66.6,29.97,NNW,338,0.0,0.0,99,0.00,CLR,,0.00,WeatherDisplay:10.37,2013-11-07 05:16:00,
2013-11-07 00:21:00,66.9,66.6,29.97,NNW,338,1.7,1.7,99,0.00,CLR,,0.00,WeatherDisplay:10.37,2013-11-07 05:21:00,
2013-11-07 00:26:00,66.9,66.6,29.97,NNW,338,1.1,1.1,99,0.00,CLR,,0.00,WeatherDisplay:10.37,2013-11-07 05:26:00,
2013-11-07 00:31:00,66.9,66.6,29.97,NNW,338,1.1,0.0,99,0.00,CLR,,0.00,WeatherDisplay:10.37,2013-11-07 05:31:00,
2013-11-07 00:36:00,66.9,66.6,29.97,NNW,338,0.0,0.0,99,0.00,CLR,,0.00,WeatherDisplay:10.37,2013-11-07 05:36:00,
2013-11-07 00:41:00,66.9,66.6,29.96,NNW,338,1.7,1.7,99,0.00,CLR,,0.00,WeatherDisplay:10.37,2013-11-07 05:41:00,
2013-11-07 00:46:00,66.9,66.6,29.96,NNW,338,0.0,0.0,99,0.00,CLR,,0.00,WeatherDisplay:10.37,2013-11-07 05:46:00,
2013-11-07 00:51:00,66.9,66.6,29.96,NNW,338,0.0,0.0,99,0.00,CLR,,0.00,WeatherDisplay:10.37,2013-11-07 05:51:00,
2013-11-07 00:56:00,67.1,66.8,29.96,NNW,338,1.7,1.7,99,0.00,CLR,,0.00,WeatherDisplay:10.37,2013-11-07 05:56:00,
2013-11-07 01:01:00,67.1,66.8,29.96,NNW,338,1.7,1.7,99,0.00,CLR,,0.00,WeatherDisplay:10.37,2013-11-07 06:01:00,
2013-11-07 01:06:00,67.1,66.8,29.96,NNW,338,0.0,0.0,99,0.00,CLR,,0.00,WeatherDisplay:10.37,2013-11-07 06:06:00,
2013-11-07 01:11:00,67.1,66.8,29.96,NNW,338,2.3,2.3,99,0.00,CLR,,0.00,WeatherDisplay:10.37,2013-11-07 06:11:00,
2013-11-07 01:16:00,67.3,67.0,29.95,NNW,338,2.3,2.3,99,0.00,CLR,,0.00,WeatherDisplay:10.37,2013-11-07 06:16:00,
2013-11-07 01:21:00,67.3,67.0,29.95,NNW,338,2.7,2.7,99,0.00,CLR,,0.00,WeatherDisplay:10.37,2013-11-07 06:21:00,
2013-11-07 01:26:00,67.3,67.0,29.95,NNW,338,2.7,2.7,99,0.00,CLR,,0.00,WeatherDisplay:10.37,2013-11-07 06:26:00,
2013-11-07 01:31:00,67.3,67.0,29.95,NNW,338,2.3,2.3,99,0.00,CLR,,0.00,WeatherDisplay:10.37,2013-11-07 06:31:00,
2013-11-07 01:36:00,67.3,67.0,29.95,NNW,338,2.3,2.3,99,0.00,CLR,,0.00,WeatherDisplay:10.37,2013-11-07 06:36:00,
2013-11-07 01:41:00,67.3,67.0,29.95,NNW,338,2.7,2.7,99,0.00,CLR,,0.00,WeatherDisplay:10.37,2013-11-07 06:41:00,
2013-11-07 01:46:00,67.3,67.0,29.95,NNW,338,2.3,2.3,99,0.00,CLR,,0.00,WeatherDisplay:10.37,2013-11-07 06:46:00,
2013-11-07 01:51:00,67.3,67.0,29.94,NNW,338,1.7,1.7,99,0.00,CLR,,0.00,WeatherDisplay:10.37,2013-11-07 06:51:00,
2013-11-07 01:56:00,67.3,67.0,29.94,NNW,338,2.3,2.3,99,0.00,CLR,,0.00,WeatherDisplay:10.37,2013-11-07 06:56:00,
2013-11-07 02:01:00,67.3,67.0,29.94,NNW,338,2.3,2.3,99,0.00,CLR,,0.00,WeatherDisplay:10.37,2013-11-07 07:01:00,
2013-11-07 02:06:00,67.3,67.0,29.94,NNW,338,1.7,1.7,99,0.00,CLR,,0.00,WeatherDisplay:10.37,2013-11-07 07:06:00,
2013-11-07 02:11:00,67.3,67.0,29.94,NNW,338,1.7,1.7,99,0.00,CLR,,0.00,WeatherDisplay:10.37,2013-11-07 07:11:00,
2013-11-07 02:16:00,67.5,67.2,29.94,NNW,338,2.7,2.7,99,0.00,CLR,,0.00,WeatherDisplay:10.37,2013-11-07 07:16:00,
2013-11-07 02:21:00,67.5,67.2,29.94,NNW,338,2.3,2.3,99,0.00,CLR,,0.00,WeatherDisplay:10.37,2013-11-07 07:21:00,
2013-11-07 02:26:00,67.5,67.2,29.93,NNW,338,2.3,2.3,99,0.00,CLR,,0.00,WeatherDisplay:10.37,2013-11-07 07:26:00,
2013-11-07 02:31:00,67.5,67.2,29.93,NNW,338,2.3,2.3,99,0.00,CLR,,0.00,WeatherDisplay:10.37,2013-11-07 07:31:00,
2013-11-07 02:36:00,67.5,67.2,29.93,NNW,338,2.3,2.3,99,0.00,CLR,,0.00,WeatherDisplay:10.37,2013-11-07 07:36:00,
2013-11-07 02:41:00,67.5,67.2,29.93,NNW,338,2.7,2.7,99,0.00,CLR,,0.00,WeatherDisplay:10.37,2013-11-07 07:41:00,
2013-11-07 02:46:00,67.6,67.3,29.93,NNW,338,2.3,2.3,99,0.00,CLR,,0.00,WeatherDisplay:10.37,2013-11-07 07:46:00,
2013-11-07 02:51:00,67.6,67.3,29.93,NNW,338,2.3,2.3,99,0.00,CLR,,0.00,WeatherDisplay:10.37,2013-11-07 07:51:00,
2013-11-07 02:56:00,67.6,67.3,29.93,NNW,338,2.3,2.3,99,0.00,CLR,,0.00,WeatherDisplay:10.37,2013-11-07 07:56:00,
2013-11-07 03:01:00,67.6,67.3,29.93,NNW,338,2.3,2.3,99,0.00,CLR,,0.00,WeatherDisplay:10.37,2013-11-07 08:01:00,
2013-11-07 03:06:00,67.8,67.5,29.93,NNW,338,2.7,2.7,99,0.00,CLR,,0.00,WeatherDisplay:10.37,2013-11-07 08:06:00,
2013-11-07 03:11:00,67.8,67.5,29.93,NNW,338,2.7,2.7,99,0.00,CLR,,0.00,WeatherDisplay:10.37,2013-11-07 08:11:00,
2013-11-07 03:16:00,67.8,67.5,29.92,NNW,338,2.3,2.3,99,0.00,CLR,,0.00,WeatherDisplay:10.37,2013-11-07 08:16:00,
2013-11-07 03:21:00,67.8,67.5,29.92,NNW,338,0.0,0.0,99,0.00,CLR,,0.00,WeatherDisplay:10.37,2013-11-07 08:21:00,
2013-11-07 03:26:00,68.0,67.7,29.92,NNW,338,2.3,2.3,99,0.00,CLR,,0.00,WeatherDisplay:10.37,2013-11-07 08:26:00,
2013-11-07 03:31:00,68.0,67.7,29.92,NNW,338,2.3,2.3,99,0.00,CLR,,0.00,WeatherDisplay:10.37,2013-11-07 08:31:00,
2013-11-07 03:36:00,68.0,67.7,29.92,NNW,338,1.1,1.1,99,0.00,CLR,,0.00,WeatherDisplay:10.37,2013-11-07 08:36:00,
2013-11-07 03:41:00,68.2,67.9,29.92,NNW,338,0.0,0.0,99,0.00,CLR,,0.00,WeatherDisplay:10.37,2013-11-07 08:41:00,
2013-11-07 03:46:00,68.2,67.9,29.92,NNW,338,2.3,2.3,99,0.00,CLR,,0.00,WeatherDisplay:10.37,2013-11-07 08:46:00,
2013-11-07 03:51:00,68.2,67.9,29.92,NNW,338,1.7,1.7,99,0.00,CLR,,0.00,WeatherDisplay:10.37,2013-11-07 08:51:00,
2013-11-07 03:56:00,68.2,67.9,29.92,NNW,338,2.3,2.3,99,0.00,CLR,,0.00,WeatherDisplay:10.37,2013-11-07 08:56:00,
2013-11-07 04:01:00,68.2,67.9,29.92,NNW,338,2.7,2.7,99,0.00,CLR,,0.00,WeatherDisplay:10.37,2013-11-07 09:01:00,
2013-11-07 04:06:00,68.2,67.9,29.92,NNW,338,2.3,2.3,99,0.00,CLR,,0.00,WeatherDisplay:10.37,2013-11-07 09:06:00,
2013-11-07 04:11:00,68.2,67.9,29.92,NNW,338,2.3,2.3,99,0.00,CLR,,0.00,WeatherDisplay:10.37,2013-11-07 09:11:00,
2013-11-07 04:16:00,68.2,67.9,29.91,NNW,338,2.3,2.3,99,0.00,CLR,,0.00,WeatherDisplay:10.37,2013-11-07 09:16:00,
2013-11-07 04:21:00,68.2,67.9,29.91,NNW,338,2.3,2.3,99,0.00,CLR,,0.00,WeatherDisplay:10.37,2013-11-07 09:21:00,
2013-11-07 04:26:00,68.2,67.9,29.91,NNW,338,2.2,2.2,99,0.00,CLR,,0.00,WeatherDisplay:10.37,2013-11-07 09:26:00,
2013-11-07 04:31:00,68.4,68.1,29.91,NNW,338,2.3,2.3,99,0.00,CLR,,0.00,WeatherDisplay:10.37,2013-11-07 09:31:00,
2013-11-07 04:36:00,68.4,68.1,29.91,NNW,338,2.3,2.3,99,0.00,CLR,,0.00,WeatherDisplay:10.37,2013-11-07 09:36:00,
2013-11-07 04:41:00,68.4,68.1,29.91,NNW,338,2.7,2.7,99,0.00,CLR,,0.00,WeatherDisplay:10.37,2013-11-07 09:41:00,
2013-11-07 04:46:00,68.4,68.1,29.91,NNW,338,3.2,3.2,99,0.00,CLR,,0.00,WeatherDisplay:10.37,2013-11-07 09:46:00,
2013-11-07 04:51:00,68.4,68.1,29.92,NNW,338,2.7,2.7,99,0.00,CLR,,0.00,WeatherDisplay:10.37,2013-11-07 09:51:00,
2013-11-07 04:56:00,68.4,68.1,29.92,NNW,338,2.7,2.7,99,0.00,CLR,,0.00,WeatherDisplay:10.37,2013-11-07 09:56:00,
2013-11-07 05:01:00,68.4,68.1,29.92,NNW,338,1.7,1.7,99,0.00,CLR,,0.00,WeatherDisplay:10.37,2013-11-07 10:01:00,
2013-11-07 05:06:00,68.4,68.1,29.92,NW,315,2.3,2.3,99,0.00,CLR,,0.00,WeatherDisplay:10.37,2013-11-07 10:06:00,
2013-11-07 05:11:00,68.4,68.1,29.92,NW,315,2.3,2.3,99,0.00,CLR,,0.00,WeatherDisplay:10.37,2013-11-07 10:11:00,
2013-11-07 05:16:00,68.4,68.1,29.91,NW,315,1.7,1.7,99,0.00,CLR,,0.00,WeatherDisplay:10.37,2013-11-07 10:16:00,
2013-11-07 05:21:00,68.4,68.1,29.91,NW,315,2.2,2.2,99,0.00,CLR,,0.00,WeatherDisplay:10.37,2013-11-07 10:21:00,
2013-11-07 05:26:00,68.2,67.9,29.91,NW,315,2.3,2.3,99,0.00,CLR,,0.00,WeatherDisplay:10.37,2013-11-07 10:26:00,
2013-11-07 05:31:00,68.2,67.9,29.91,NW,315,1.7,1.7,99,0.00,CLR,,0.00,WeatherDisplay:10.37,2013-11-07 10:31:00,
2013-11-07 05:37:00,68.2,67.9,29.92,NW,315,2.3,2.3,99,0.00,CLR,,0.00,WeatherDisplay:10.37,2013-11-07 10:37:00,
2013-11-07 05:42:00,68.2,67.9,29.92,NW,315,2.3,2.3,99,0.00,CLR,,0.00,WeatherDisplay:10.37,2013-11-07 10:42:00,
2013-11-07 05:47:00,68.2,67.9,29.92,NW,315,2.3,2.3,99,0.00,CLR,,0.00,WeatherDisplay:10.37,2013-11-07 10:47:00,
2013-11-07 05:52:00,68.2,67.9,29.92,NW,315,2.3,2.3,99,0.00,CLR,,0.00,WeatherDisplay:10.37,2013-11-07 10:52:00,
2013-11-07 05:57:00,68.2,67.9,29.92,NW,315,2.7,2.7,99,0.00,CLR,,0.00,WeatherDisplay:10.37,2013-11-07 10:57:00,
2013-11-07 06:02:00,68.2,67.9,29.92,NW,315,2.7,2.7,99,0.00,CLR,,0.00,WeatherDisplay:10.37,2013-11-07 11:02:00,
2013-11-07 06:07:00,68.2,67.9,29.92,NW,315,2.7,2.7,99,0.00,CLR,,0.00,WeatherDisplay:10.37,2013-11-07 11:07:00,
2013-11-07 06:12:00,68.2,67.9,29.92,NW,315,3.5,3.5,99,0.00,CLR,,0.00,WeatherDisplay:10.37,2013-11-07 11:12:00,
2013-11-07 06:17:00,68.2,67.9,29.92,NW,315,2.7,2.7,99,0.00,CLR,,0.00,WeatherDisplay:10.37,2013-11-07 11:17:00,
2013-11-07 06:22:00,68.2,67.9,29.92,NW,315,2.7,2.7,99,0.00,CLR,,0.00,WeatherDisplay:10.37,2013-11-07 11:22:00,
2013-11-07 06:27:00,68.2,67.9,29.93,NW,315,2.3,2.3,99,0.00,CLR,,0.00,WeatherDisplay:10.37,2013-11-07 11:27:00,
2013-11-07 06:32:00,68.2,67.9,29.93,NW,315,1.7,1.7,99,0.00,CLR,,0.00,WeatherDisplay:10.37,2013-11-07 11:32:00,
2013-11-07 06:34:00,68.2,67.9,29.93,NW,315,1.7,1.7,99,0.00,CLR,,0.00,WeatherDisplay:10.37,2013-11-07 11:34:00,
2013-11-07 06:39:00,68.2,67.9,29.92,NW,315,1.1,1.1,99,0.00,CLR,,0.00,WeatherDisplay:10.37,2013-11-07 11:39:00,
2013-11-07 06:44:00,68.2,67.9,29.92,NW,315,1.7,1.7,99,0.00,CLR,,0.00,WeatherDisplay:10.37,2013-11-07 11:44:00,
2013-11-07 06:50:00,68.2,67.9,29.92,NW,315,2.3,2.3,99,0.00,CLR,,0.00,WeatherDisplay:10.37,2013-11-07 11:50:00,
2013-11-07 06:55:00,68.2,67.9,29.92,NW,315,2.3,2.3,99,0.00,CLR,,0.00,WeatherDisplay:10.37,2013-11-07 11:55:00,
2013-11-07 07:00:00,68.2,67.9,29.92,NW,315,1.1,1.1,99,0.00,CLR,,0.00,WeatherDisplay:10.37,2013-11-07 12:00:00,
2013-11-07 07:05:00,68.4,68.1,29.93,NW,315,2.2,2.2,99,0.00,CLR,,0.00,WeatherDisplay:10.37,2013-11-07 12:05:00,
2013-11-07 07:10:00,68.4,68.1,29.93,NW,315,1.7,1.7,99,0.00,CLR,,0.00,WeatherDisplay:10.37,2013-11-07 12:10:00,
2013-11-07 07:15:00,68.5,68.2,29.93,NW,315,0.0,0.0,99,0.00,CLR,,0.00,WeatherDisplay:10.37,2013-11-07 12:15:00,
2013-11-07 07:20:00,68.5,68.2,29.93,NW,315,0.0,0.0,99,0.00,CLR,,0.00,WeatherDisplay:10.37,2013-11-07 12:20:00,
2013-11-07 07:25:00,68.5,68.2,29.94,NW,315,2.3,2.3,99,0.00,CLR,,0.00,WeatherDisplay:10.37,2013-11-07 12:25:00,
2013-11-07 07:30:00,68.5,68.2,29.94,NW,315,1.7,1.7,99,0.00,CLR,,0.00,WeatherDisplay:10.37,2013-11-07 12:30:00,
2013-11-07 07:35:00,68.7,68.4,29.94,NW,315,1.7,1.7,99,0.00,CLR,,0.00,WeatherDisplay:10.37,2013-11-07 12:35:00,
2013-11-07 07:40:00,68.7,68.4,29.94,NW,315,2.3,2.3,99,0.00,CLR,,0.00,WeatherDisplay:10.37,2013-11-07 12:40:00,
2013-11-07 07:45:00,68.9,68.6,29.94,NW,315,2.3,2.3,99,0.00,CLR,,0.00,WeatherDisplay:10.37,2013-11-07 12:45:00,
2013-11-07 07:50:00,69.1,68.8,29.94,NNE,22,2.3,2.3,99,0.00,CLR,,0.00,WeatherDisplay:10.37,2013-11-07 12:50:00,
2013-11-07 07:55:00,69.1,68.8,29.94,North,360,3.5,3.5,99,0.00,CLR,,0.00,WeatherDisplay:10.37,2013-11-07 12:55:00,
2013-11-07 08:00:00,69.4,69.1,29.94,North,360,2.7,2.7,99,0.00,CLR,,0.00,WeatherDisplay:10.37,2013-11-07 13:00:00,
2013-11-07 08:05:00,69.8,69.5,29.95,North,360,2.3,2.3,99,0.00,CLR,,0.00,WeatherDisplay:10.37,2013-11-07 13:05:00,
2013-11-07 08:10:00,70.0,69.7,29.95,North,360,1.7,1.7,99,0.00,CLR,,0.00,WeatherDisplay:10.37,2013-11-07 13:10:00,
2013-11-07 08:15:00,70.2,69.9,29.95,North,360,2.7,2.7,99,0.00,CLR,,0.00,WeatherDisplay:10.37,2013-11-07 13:15:00,
2013-11-07 08:20:00,70.3,70.0,29.95,North,360,3.5,3.5,99,0.00,CLR,,0.00,WeatherDisplay:10.37,2013-11-07 13:20:00,
2013-11-07 08:25:00,70.5,70.2,29.96,North,360,2.3,2.3,99,0.00,CLR,,0.00,WeatherDisplay:10.37,2013-11-07 13:25:00,
2013-11-07 08:30:00,70.7,70.4,29.96,NW,315,2.7,2.7,99,0.00,CLR,,0.00,WeatherDisplay:10.37,2013-11-07 13:30:00,
2013-11-07 08:35:00,70.9,70.3,29.96,NW,315,2.3,2.3,98,0.00,CLR,,0.00,WeatherDisplay:10.37,2013-11-07 13:35:00,
2013-11-07 08:40:00,71.1,70.5,29.96,NW,315,2.3,2.3,98,0.00,CLR,,0.00,WeatherDisplay:10.37,2013-11-07 13:40:00,
2013-11-07 08:45:00,71.1,70.5,29.96,NW,315,2.3,2.3,98,0.00,CLR,,0.00,WeatherDisplay:10.37,2013-11-07 13:45:00,
2013-11-07 08:50:00,71.1,70.2,29.96,NW,315,2.3,2.3,97,0.00,CLR,,0.00,WeatherDisplay:10.37,2013-11-07 13:50:00,
2013-11-07 08:55:00,70.9,70.0,29.96,NW,315,2.3,2.3,97,0.00,CLR,,0.00,WeatherDisplay:10.37,2013-11-07 13:55:00,
2013-11-07 09:00:00,71.1,70.2,29.97,NW,315,2.3,2.3,97,0.00,CLR,,0.00,WeatherDisplay:10.37,2013-11-07 14:00:00,
2013-11-07 09:05:00,71.1,70.2,29.97,NNW,338,2.7,2.7,97,0.00,CLR,,0.00,WeatherDisplay:10.37,2013-11-07 14:05:00,
2013-11-07 09:10:00,71.4,70.5,29.93,NNW,337,2.2,-999.0,97,-99.99,,,0.00,Acu-Link.com,2013-11-07 14:10:00,
2013-11-07 09:15:00,71.6,70.4,29.97,NNW,338,2.3,2.3,96,0.00,CLR,,0.00,WeatherDisplay:10.37,2013-11-07 14:15:00,
2013-11-07 09:20:00,72.1,70.6,29.97,NNW,338,2.3,2.3,95,0.00,CLR,,0.00,WeatherDisplay:10.37,2013-11-07 14:20:00,
2013-11-07 09:25:00,72.5,70.4,29.96,NNW,338,1.1,1.1,93,0.00,CLR,,0.00,WeatherDisplay:10.37,2013-11-07 14:25:00,
2013-11-07 09:30:00,72.9,70.8,29.96,NNW,338,0.0,0.0,93,0.00,CLR,,0.00,WeatherDisplay:10.37,2013-11-07 14:30:00,
2013-11-07 09:35:00,72.9,70.4,29.96,NNW,338,3.5,3.5,92,0.00,CLR,,0.00,WeatherDisplay:10.37,2013-11-07 14:35:00,
2013-11-07 09:40:00,73.6,70.5,29.97,NNW,338,2.3,2.3,90,0.00,CLR,,0.00,WeatherDisplay:10.37,2013-11-07 14:40:00,
2013-11-07 09:45:00,73.8,70.4,29.97,NNW,338,2.2,2.2,89,0.00,CLR,,0.00,WeatherDisplay:10.37,2013-11-07 14:45:00,
2013-11-07 09:50:00,73.4,70.3,29.97,NNW,338,2.3,2.3,90,0.00,CLR,,0.00,WeatherDisplay:10.37,2013-11-07 14:50:00,
2013-11-07 09:55:00,73.9,70.1,29.97,NW,315,2.3,2.3,88,0.00,CLR,,0.00,WeatherDisplay:10.37,2013-11-07 14:55:00,
2013-11-07 10:00:00,74.3,70.5,29.97,NW,315,2.3,2.3,88,0.00,CLR,,0.00,WeatherDisplay:10.37,2013-11-07 15:00:00,
2013-11-07 10:06:00,74.3,69.8,29.97,NW,315,2.7,2.7,86,0.00,CLR,,0.00,WeatherDisplay:10.37,2013-11-07 15:06:00,
2013-11-07 10:11:00,72.5,69.4,29.97,NW,315,2.7,2.7,90,0.00,CLR,,0.00,WeatherDisplay:10.37,2013-11-07 15:11:00,
2013-11-07 10:16:00,72.5,69.7,29.97,NW,315,2.3,2.3,91,0.00,CLR,,0.00,WeatherDisplay:10.37,2013-11-07 15:16:00,
2013-11-07 10:21:00,72.5,69.7,29.97,NW,315,2.7,2.7,91,0.00,CLR,,0.00,WeatherDisplay:10.37,2013-11-07 15:21:00,
2013-11-07 10:26:00,72.3,69.8,29.97,NW,315,3.7,3.7,92,0.00,CLR,,0.00,WeatherDisplay:10.37,2013-11-07 15:26:00,
2013-11-07 10:31:00,72.1,69.6,29.97,NNW,338,4.6,4.6,92,0.00,CLR,,0.00,WeatherDisplay:10.37,2013-11-07 15:31:00,
2013-11-07 10:36:00,72.0,69.2,29.97,NW,315,2.3,2.3,91,0.00,CLR,,0.00,WeatherDisplay:10.37,2013-11-07 15:36:00,
2013-11-07 10:41:00,72.3,69.5,29.97,NW,315,2.3,2.3,91,0.00,CLR,,0.00,WeatherDisplay:10.37,2013-11-07 15:41:00,
2013-11-07 10:46:00,72.3,69.5,29.97,NW,315,2.3,2.3,91,0.00,CLR,,0.00,WeatherDisplay:10.37,2013-11-07 15:46:00,
2013-11-07 10:51:00,73.4,69.6,29.96,NW,315,3.5,3.5,88,0.00,CLR,,0.00,WeatherDisplay:10.37,2013-11-07 15:51:00,
2013-11-07 10:56:00,74.5,70.0,29.96,NW,315,2.3,2.3,86,0.00,CLR,,0.00,WeatherDisplay:10.37,2013-11-07 15:56:00,
2013-11-07 11:01:00,75.6,70.4,29.96,NNE,22,3.2,3.2,84,0.00,CLR,,0.00,WeatherDisplay:10.37,2013-11-07 16:01:00,
2013-11-07 11:06:00,75.6,70.4,29.96,NNW,338,3.7,3.7,84,0.00,CLR,,0.00,WeatherDisplay:10.37,2013-11-07 16:06:00,
2013-11-07 11:11:00,74.7,69.9,29.96,NNE,22,3.5,3.5,85,0.00,CLR,,0.00,WeatherDisplay:10.37,2013-11-07 16:11:00,
2013-11-07 11:16:00,74.7,69.9,29.96,NW,315,3.5,3.5,85,0.00,CLR,,0.00,WeatherDisplay:10.37,2013-11-07 16:16:00,
2013-11-07 11:21:00,74.7,69.5,29.96,NW,315,3.5,3.5,84,0.00,CLR,,0.00,WeatherDisplay:10.37,2013-11-07 16:21:00,
2013-11-07 11:26:00,74.7,69.9,29.95,NW,315,3.5,3.5,85,0.00,CLR,,0.00,WeatherDisplay:10.37,2013-11-07 16:26:00,
2013-11-07 11:31:00,75.0,69.5,29.95,NW,315,3.5,3.5,83,0.00,CLR,,0.00,WeatherDisplay:10.37,2013-11-07 16:31:00,
2013-11-07 11:37:00,75.2,69.3,29.95,NW,315,3.5,3.5,82,0.00,CLR,,0.00,WeatherDisplay:10.37,2013-11-07 16:37:00,
2013-11-07 11:42:00,75.7,69.5,29.95,NW,315,3.5,3.5,81,0.00,CLR,,0.00,WeatherDisplay:10.37,2013-11-07 16:42:00,
2013-11-07 11:47:00,75.6,69.4,29.95,NNW,338,3.7,3.7,81,0.00,CLR,,0.00,WeatherDisplay:10.37,2013-11-07 16:47:00,
2013-11-07 11:52:00,76.5,69.9,29.95,NW,315,2.3,2.3,80,0.00,CLR,,0.00,WeatherDisplay:10.37,2013-11-07 16:52:00,
2013-11-07 11:57:00,76.5,69.9,29.95,NW,315,3.7,3.7,80,0.00,CLR,,0.00,WeatherDisplay:10.37,2013-11-07 16:57:00,
2013-11-07 12:02:00,75.7,69.5,29.94,NW,315,2.7,2.7,81,0.00,CLR,,0.00,WeatherDisplay:10.37,2013-11-07 17:02:00,
2013-11-07 12:07:00,76.3,69.3,29.94,NW,315,3.5,3.5,79,0.00,CLR,,0.00,WeatherDisplay:10.37,2013-11-07 17:07:00,
2013-11-07 12:12:00,77.7,69.1,29.94,NNE,22,3.7,3.7,75,0.00,CLR,,0.00,WeatherDisplay:10.37,2013-11-07 17:12:00,
2013-11-07 12:17:00,77.9,69.3,29.94,NNE,22,3.5,3.5,75,0.00,CLR,,0.00,WeatherDisplay:10.37,2013-11-07 17:17:00,
2013-11-07 12:22:00,77.9,69.3,29.94,NNW,338,3.7,3.7,75,0.00,CLR,,0.00,WeatherDisplay:10.37,2013-11-07 17:22:00,
2013-11-07 12:27:00,77.7,68.4,29.93,WNW,292,3.7,3.7,73,0.00,CLR,,0.00,WeatherDisplay:10.37,2013-11-07 17:27:00,
2013-11-07 12:32:00,77.7,68.7,29.93,NNW,338,4.6,4.6,74,0.00,CLR,,0.00,WeatherDisplay:10.37,2013-11-07 17:32:00,
2013-11-07 12:37:00,77.9,68.9,29.93,NNE,22,4.6,4.6,74,0.00,CLR,,0.00,WeatherDisplay:10.37,2013-11-07 17:37:00,
2013-11-07 12:42:00,77.9,68.1,29.93,NNE,22,3.5,3.5,72,0.00,CLR,,0.00,WeatherDisplay:10.37,2013-11-07 17:42:00,
2013-11-07 12:47:00,77.4,67.7,29.93,NNE,22,4.6,4.6,72,0.00,CLR,,0.00,WeatherDisplay:10.37,2013-11-07 17:47:00,
2013-11-07 12:52:00,79.0,69.2,29.93,NE,45,3.5,3.5,72,0.00,CLR,,0.00,WeatherDisplay:10.37,2013-11-07 17:52:00,
2013-11-07 12:57:00,78.8,68.2,29.93,NNE,22,4.6,4.6,70,0.00,CLR,,0.00,WeatherDisplay:10.37,2013-11-07 17:57:00,
2013-11-07 12:58:00,78.6,68.0,29.93,NNE,22,4.6,4.6,70,0.00,CLR,,0.00,WeatherDisplay:10.37,2013-11-07 17:58:00,
2013-11-07 13:03:00,78.8,67.8,29.92,NNE,22,3.7,3.7,69,0.00,CLR,,0.00,WeatherDisplay:10.37,2013-11-07 18:03:00,
2013-11-07 13:08:00,78.6,68.0,29.92,West,270,2.7,2.7,70,0.00,CLR,,0.00,WeatherDisplay:10.37,2013-11-07 18:08:00,
2013-11-07 13:13:00,79.3,68.2,29.92,NNE,22,3.5,3.5,69,0.00,CLR,,0.00,WeatherDisplay:10.37,2013-11-07 18:13:00,
2013-11-07 13:18:00,79.3,68.2,29.92,NNE,22,2.3,2.3,69,0.00,CLR,,0.00,WeatherDisplay:10.37,2013-11-07 18:18:00,
2013-11-07 13:23:00,79.0,68.8,29.92,NNW,338,3.7,3.7,71,0.00,CLR,,0.00,WeatherDisplay:10.37,2013-11-07 18:23:00,
2013-11-07 13:28:00,79.7,68.6,29.91,WNW,292,2.7,2.7,69,0.00,CLR,,0.00,WeatherDisplay:10.37,2013-11-07 18:28:00,
2013-11-07 13:34:00,79.3,68.2,29.91,North,360,4.7,4.7,69,0.00,CLR,,0.00,WeatherDisplay:10.37,2013-11-07 18:34:00,
2013-11-07 13:39:00,79.9,68.8,29.90,WNW,292,2.3,2.3,69,0.00,CLR,,0.00,WeatherDisplay:10.37,2013-11-07 18:39:00,
2013-11-07 13:44:00,80.6,68.6,29.90,NNE,22,3.5,3.5,67,0.00,CLR,,0.00,WeatherDisplay:10.37,2013-11-07 18:44:00,
2013-11-07 13:49:00,81.0,69.0,29.90,NW,315,4.2,4.2,67,0.00,CLR,,0.00,WeatherDisplay:10.37,2013-11-07 18:49:00,
2013-11-07 13:54:00,80.2,68.7,29.90,NNE,22,2.3,2.3,68,0.00,CLR,,0.00,WeatherDisplay:10.37,2013-11-07 18:54:00,
2013-11-07 13:59:00,79.3,67.4,29.90,NNE,22,3.5,3.5,67,0.00,CLR,,0.00,WeatherDisplay:10.37,2013-11-07 18:59:00,
2013-11-07 14:04:00,80.1,68.2,29.90,NW,315,2.3,2.3,67,0.00,CLR,,0.00,WeatherDisplay:10.37,2013-11-07 19:04:00,
2013-11-07 14:09:00,79.0,67.1,29.90,NNE,22,3.5,3.5,67,0.00,CLR,,0.00,WeatherDisplay:10.37,2013-11-07 19:09:00,
2013-11-07 14:14:00,78.8,67.3,29.89,NW,315,3.2,3.2,68,0.00,CLR,,0.00,WeatherDisplay:10.37,2013-11-07 19:14:00,
2013-11-07 14:19:00,78.8,67.8,29.89,NW,315,3.5,3.5,69,0.00,CLR,,0.00,WeatherDisplay:10.37,2013-11-07 19:19:00,
2013-11-07 14:24:00,79.0,68.0,29.89,NW,315,2.7,2.7,69,0.00,CLR,,0.00,WeatherDisplay:10.37,2013-11-07 19:24:00,
2013-11-07 14:29:00,79.2,68.1,29.88,NW,315,2.3,2.3,69,0.00,CLR,,0.00,WeatherDisplay:10.37,2013-11-07 19:29:00,
2013-11-07 14:34:00,79.3,67.4,29.88,NW,315,2.7,2.7,67,0.00,CLR,,0.00,WeatherDisplay:10.37,2013-11-07 19:34:00,
2013-11-07 14:39:00,79.5,68.0,29.89,NW,315,2.7,2.7,68,0.00,CLR,,0.00,WeatherDisplay:10.37,2013-11-07 19:39:00,
2013-11-07 14:44:00,79.0,68.0,29.89,NW,315,2.3,2.3,69,0.00,CLR,,0.00,WeatherDisplay:10.37,2013-11-07 19:44:00,
2013-11-07 14:49:00,78.4,67.4,29.89,NW,315,3.7,3.7,69,0.00,CLR,,0.00,WeatherDisplay:10.37,2013-11-07 19:49:00,
2013-11-07 14:54:00,78.6,68.0,29.88,NW,315,3.5,3.5,70,0.00,CLR,,0.00,WeatherDisplay:10.37,2013-11-07 19:54:00,
2013-11-07 14:59:00,79.2,68.1,29.88,NW,315,4.6,4.6,69,0.00,CLR,,0.00,WeatherDisplay:10.37,2013-11-07 19:59:00,
2013-11-07 15:04:00,79.0,67.1,29.88,NW,315,3.5,3.5,67,0.00,CLR,,0.00,WeatherDisplay:10.37,2013-11-07 20:04:00,
2013-11-07 15:09:00,79.5,67.1,29.88,NW,315,2.3,2.3,66,0.00,CLR,,0.00,WeatherDisplay:10.37,2013-11-07 20:09:00,
2013-11-07 15:14:00,79.9,67.1,29.88,NNE,22,3.5,3.5,65,0.00,CLR,,0.00,WeatherDisplay:10.37,2013-11-07 20:14:00,
2013-11-07 15:19:00,79.3,67.4,29.88,NNE,22,3.7,3.7,67,0.00,CLR,,0.00,WeatherDisplay:10.37,2013-11-07 20:19:00,
2013-11-07 15:24:00,79.3,67.0,29.88,NW,315,3.5,3.5,66,0.00,CLR,,0.00,WeatherDisplay:10.37,2013-11-07 20:24:00,
2013-11-07 15:29:00,79.0,66.7,29.88,NNE,22,3.5,3.5,66,0.00,CLR,,0.00,WeatherDisplay:10.37,2013-11-07 20:29:00,
2013-11-07 15:34:00,78.4,66.5,29.88,NW,315,3.5,3.5,67,0.00,CLR,,0.00,WeatherDisplay:10.37,2013-11-07 20:34:00,
2013-11-07 15:39:00,78.8,66.9,29.88,NW,315,2.7,2.7,67,0.00,CLR,,0.00,WeatherDisplay:10.37,2013-11-07 20:39:00,
2013-11-07 15:44:00,78.6,66.7,29.88,NW,315,4.6,4.6,67,0.00,CLR,,0.00,WeatherDisplay:10.37,2013-11-07 20:44:00,
2013-11-07 15:49:00,78.4,67.4,29.88,NNE,22,2.3,2.3,69,0.00,CLR,,0.00,WeatherDisplay:10.37,2013-11-07 20:49:00,
2013-11-07 15:54:00,78.1,67.1,29.88,NNE,22,2.7,2.7,69,0.00,CLR,,0.00,WeatherDisplay:10.37,2013-11-07 20:54:00,
2013-11-07 15:59:00,77.9,67.3,29.88,NNE,22,2.3,2.3,70,0.00,CLR,,0.00,WeatherDisplay:10.37,2013-11-07 20:59:00,
2013-11-07 16:04:00,77.7,67.5,29.88,NW,315,2.2,2.2,71,0.00,CLR,,0.00,WeatherDisplay:10.37,2013-11-07 21:04:00,
2013-11-07 16:09:00,77.9,67.7,29.88,NW,315,2.7,2.7,71,0.00,CLR,,0.00,WeatherDisplay:10.37,2013-11-07 21:09:00,
2013-11-07 16:14:00,78.8,67.8,29.88,NW,315,2.3,2.3,69,0.00,CLR,,0.00,WeatherDisplay:10.37,2013-11-07 21:14:00,
2013-11-07 16:19:00,79.3,67.8,29.88,NW,315,2.3,2.3,68,0.00,CLR,,0.00,WeatherDisplay:10.37,2013-11-07 21:19:00,
2013-11-07 16:24:00,79.5,68.4,29.88,WNW,292,2.2,2.2,69,0.00,CLR,,0.00,WeatherDisplay:10.37,2013-11-07 21:24:00,
2013-11-07 16:29:00,79.0,67.5,29.88,WNW,292,3.5,3.5,68,0.00,CLR,,0.00,WeatherDisplay:10.37,2013-11-07 21:29:00,
2013-11-07 16:34:00,78.8,67.8,29.88,NW,315,2.7,2.7,69,0.00,CLR,,0.00,WeatherDisplay:10.37,2013-11-07 21:34:00,
2013-11-07 16:39:00,78.8,67.8,29.88,NW,315,3.2,3.2,69,0.00,CLR,,0.00,WeatherDisplay:10.37,2013-11-07 21:39:00,
2013-11-07 16:44:00,78.1,67.9,29.88,NNE,22,4.6,4.6,71,0.00,CLR,,0.00,WeatherDisplay:10.37,2013-11-07 21:44:00,
2013-11-07 16:49:00,78.1,67.9,29.88,NW,315,3.5,3.5,71,0.00,CLR,,0.00,WeatherDisplay:10.37,2013-11-07 21:49:00,
2013-11-07 16:54:00,78.1,67.9,29.88,NW,315,2.3,2.3,71,0.00,CLR,,0.00,WeatherDisplay:10.37,2013-11-07 21:54:00,
2013-11-07 16:59:00,77.7,67.5,29.88,WNW,292,2.7,2.7,71,0.00,CLR,,0.00,WeatherDisplay:10.37,2013-11-07 21:59:00,
2013-11-07 17:04:00,77.2,67.1,29.89,NW,315,3.7,3.7,71,0.00,CLR,,0.00,WeatherDisplay:10.37,2013-11-07 22:04:00,
2013-11-07 17:09:00,77.0,66.9,29.89,NW,315,3.5,3.5,71,0.00,CLR,,0.00,WeatherDisplay:10.37,2013-11-07 22:09:00,
2013-11-07 17:14:00,76.6,66.5,29.89,NW,315,2.3,2.3,71,0.00,CLR,,0.00,WeatherDisplay:10.37,2013-11-07 22:14:00,
2013-11-07 17:19:00,76.5,66.8,29.89,NW,315,2.7,2.7,72,0.00,CLR,,0.00,WeatherDisplay:10.37,2013-11-07 22:19:00,
2013-11-07 17:24:00,76.5,66.8,29.89,NW,315,2.2,2.2,72,0.00,CLR,,0.00,WeatherDisplay:10.37,2013-11-07 22:24:00,
2013-11-07 17:29:00,76.3,67.0,29.89,NW,315,2.3,2.3,73,0.00,CLR,,0.00,WeatherDisplay:10.37,2013-11-07 22:29:00,
2013-11-07 17:34:00,76.1,66.8,29.89,NW,315,3.5,3.5,73,0.00,CLR,,0.00,WeatherDisplay:10.37,2013-11-07 22:34:00,
2013-11-07 17:39:00,75.7,66.8,29.89,NW,315,0.0,0.0,74,0.00,CLR,,0.00,WeatherDisplay:10.37,2013-11-07 22:39:00,
2013-11-07 17:44:00,75.6,67.1,29.89,NW,315,2.7,2.7,75,0.00,CLR,,0.00,WeatherDisplay:10.37,2013-11-07 22:44:00,
2013-11-07 17:49:00,75.4,66.9,29.90,NW,315,2.3,2.3,75,0.00,CLR,,0.00,WeatherDisplay:10.37,2013-11-07 22:49:00,
2013-11-07 17:54:00,75.2,67.1,29.90,NW,315,2.3,2.3,76,0.00,CLR,,0.00,WeatherDisplay:10.37,2013-11-07 22:54:00,
2013-11-07 17:59:00,75.2,67.1,29.90,NW,315,2.7,2.7,76,0.00,CLR,,0.00,WeatherDisplay:10.37,2013-11-07 22:59:00,
2013-11-07 18:04:00,75.0,66.9,29.90,NW,315,2.7,2.7,76,0.00,CLR,,0.00,WeatherDisplay:10.37,2013-11-07 23:04:00,
2013-11-07 18:09:00,75.0,66.9,29.90,NW,315,2.3,2.3,76,0.00,CLR,,0.00,WeatherDisplay:10.37,2013-11-07 23:09:00,
2013-11-07 18:14:00,74.8,67.1,29.90,NW,315,2.3,2.3,77,0.00,CLR,,0.00,WeatherDisplay:10.37,2013-11-07 23:14:00,
2013-11-07 18:19:00,74.8,67.1,29.90,NW,315,2.3,2.3,77,0.00,CLR,,0.00,WeatherDisplay:10.37,2013-11-07 23:19:00,
2013-11-07 18:24:00,74.8,67.1,29.91,NW,315,2.7,2.7,77,0.00,CLR,,0.00,WeatherDisplay:10.37,2013-11-07 23:24:00,
2013-11-07 18:29:00,74.7,67.0,29.91,NW,315,2.7,2.7,77,0.00,CLR,,0.00,WeatherDisplay:10.37,2013-11-07 23:29:00,
2013-11-07 18:34:00,74.7,67.0,29.91,NW,315,2.7,2.7,77,0.00,CLR,,0.00,WeatherDisplay:10.37,2013-11-07 23:34:00,
2013-11-07 18:39:00,74.5,66.4,29.91,NW,315,2.3,2.3,76,0.00,CLR,,0.00,WeatherDisplay:10.37,2013-11-07 23:39:00,
2013-11-07 18:44:00,74.5,66.4,29.91,NW,315,2.3,2.3,76,0.00,CLR,,0.00,WeatherDisplay:10.37,2013-11-07 23:44:00,
2013-11-07 18:49:00,74.3,66.2,29.91,NW,315,2.3,2.3,76,0.00,CLR,,0.00,WeatherDisplay:10.37,2013-11-07 23:49:00,
2013-11-07 18:54:00,74.3,66.2,29.91,NW,315,2.3,2.3,76,0.00,CLR,,0.00,WeatherDisplay:10.37,2013-11-07 23:54:00,
2013-11-07 18:59:00,74.3,66.2,29.91,NW,315,1.7,1.7,76,0.00,CLR,,0.00,WeatherDisplay:10.37,2013-11-07 23:59:00,
2013-11-07 19:05:00,74.1,66.4,29.91,NW,315,1.1,1.1,77,0.00,CLR,,0.00,WeatherDisplay:10.37,2013-11-08 00:05:00,
2013-11-07 19:10:00,73.9,66.2,29.91,NW,315,1.7,1.7,77,0.00,CLR,,0.00,WeatherDisplay:10.37,2013-11-08 00:10:00,
2013-11-07 19:15:00,73.8,66.1,29.91,NW,315,0.0,0.0,77,0.00,CLR,,0.00,WeatherDisplay:10.37,2013-11-08 00:15:00,
2013-11-07 19:20:00,73.6,66.3,29.91,NW,315,0.0,0.0,78,0.00,CLR,,0.00,WeatherDisplay:10.37,2013-11-08 00:20:00,
2013-11-07 19:25:00,73.4,66.1,29.91,NW,315,0.0,0.0,78,0.00,CLR,,0.00,WeatherDisplay:10.37,2013-11-08 00:25:00,
2013-11-07 19:30:00,73.2,66.3,29.91,NW,315,1.1,1.1,79,0.00,CLR,,0.00,WeatherDisplay:10.37,2013-11-08 00:30:00,
2013-11-07 19:35:00,73.0,66.1,29.91,NW,315,0.0,0.0,79,0.00,CLR,,0.00,WeatherDisplay:10.37,2013-11-08 00:35:00,
2013-11-07 19:40:00,72.9,66.4,29.91,NW,315,0.0,0.0,80,0.00,CLR,,0.00,WeatherDisplay:10.37,2013-11-08 00:40:00,
2013-11-07 19:45:00,72.5,66.3,29.91,NW,315,0.0,0.0,81,0.00,CLR,,0.00,WeatherDisplay:10.37,2013-11-08 00:45:00,
2013-11-07 19:50:00,72.1,66.3,29.91,NW,315,0.0,0.0,82,0.00,CLR,,0.00,WeatherDisplay:10.37,2013-11-08 00:50:00,
2013-11-07 19:55:00,71.8,66.4,29.91,NW,315,0.0,0.0,83,0.00,CLR,,0.00,WeatherDisplay:10.37,2013-11-08 00:55:00,
2013-11-07 20:00:00,71.4,66.0,29.91,NW,315,0.0,0.0,83,0.00,CLR,,0.00,WeatherDisplay:10.37,2013-11-08 01:00:00,
2013-11-07 20:05:00,70.9,65.5,29.91,NW,315,0.0,0.0,83,0.00,CLR,,0.00,WeatherDisplay:10.37,2013-11-08 01:05:00,
2013-11-07 20:10:00,70.7,66.0,29.91,NW,315,0.0,0.0,85,0.00,CLR,,0.00,WeatherDisplay:10.37,2013-11-08 01:10:00,
2013-11-07 20:15:00,70.2,66.1,29.92,NW,315,0.0,0.0,87,0.00,CLR,,0.00,WeatherDisplay:10.37,2013-11-08 01:15:00,
2013-11-07 20:20:00,70.0,66.0,29.92,NW,315,0.0,0.0,87,0.00,CLR,,0.00,WeatherDisplay:10.37,2013-11-08 01:20:00,
2013-11-07 20:25:00,69.8,65.8,29.92,NW,315,0.0,0.0,87,0.00,CLR,,0.00,WeatherDisplay:10.37,2013-11-08 01:25:00,
2013-11-07 20:30:00,69.6,65.6,29.92,NW,315,0.0,0.0,87,0.00,CLR,,0.00,WeatherDisplay:10.37,2013-11-08 01:30:00,
2013-11-07 20:35:00,69.4,65.7,29.92,NW,315,0.0,0.0,88,0.00,CLR,,0.00,WeatherDisplay:10.37,2013-11-08 01:35:00,
2013-11-07 20:40:00,69.3,66.9,29.93,NW,315,0.0,0.0,92,0.00,CLR,,0.00,WeatherDisplay:10.37,2013-11-08 01:40:00,
2013-11-07 20:45:00,69.3,67.2,29.93,NW,315,1.1,1.1,93,0.00,CLR,,0.00,WeatherDisplay:10.37,2013-11-08 01:45:00,
2013-11-07 20:50:00,69.3,67.2,29.93,WNW,292,2.3,2.3,93,0.00,CLR,,0.00,WeatherDisplay:10.37,2013-11-08 01:50:00,
2013-11-07 20:55:00,69.1,67.0,29.93,WNW,292,0.0,0.0,93,0.00,CLR,,0.00,WeatherDisplay:10.37,2013-11-08 01:55:00,
2013-11-07 21:00:00,68.7,66.6,29.93,WNW,292,0.0,0.0,93,0.00,CLR,,0.00,WeatherDisplay:10.37,2013-11-08 02:00:00,
2013-11-07 21:05:00,68.7,67.2,29.93,WNW,292,0.0,0.0,95,0.00,CLR,,0.00,WeatherDisplay:10.37,2013-11-08 02:05:00,
2013-11-07 21:10:00,68.5,67.0,29.93,WNW,292,0.0,0.0,95,0.00,CLR,,0.00,WeatherDisplay:10.37,2013-11-08 02:10:00,
2013-11-07 21:15:00,68.4,66.9,29.93,WNW,292,0.0,0.0,95,0.00,CLR,,0.00,WeatherDisplay:10.37,2013-11-08 02:15:00,
2013-11-07 21:20:00,68.2,66.7,29.93,WNW,292,0.0,0.0,95,0.00,CLR,,0.00,WeatherDisplay:10.37,2013-11-08 02:20:00,
2013-11-07 21:25:00,68.0,66.5,29.93,WNW,292,0.0,0.0,95,0.00,CLR,,0.00,WeatherDisplay:10.37,2013-11-08 02:25:00,
2013-11-07 21:30:00,67.8,66.6,29.93,WNW,292,0.0,0.0,96,0.00,CLR,,0.00,WeatherDisplay:10.37,2013-11-08 02:30:00,
2013-11-07 21:35:00,67.6,66.4,29.93,WNW,292,0.0,0.0,96,0.00,CLR,,0.00,WeatherDisplay:10.37,2013-11-08 02:35:00,
2013-11-07 21:40:00,67.5,66.3,29.93,WNW,292,0.0,0.0,96,0.00,CLR,,0.00,WeatherDisplay:10.37,2013-11-08 02:40:00,
2013-11-07 21:45:00,67.3,66.1,29.93,WNW,292,0.0,0.0,96,0.00,CLR,,0.00,WeatherDisplay:10.37,2013-11-08 02:45:00,
2013-11-07 21:50:00,67.1,66.2,29.93,WNW,292,0.0,0.0,97,0.00,CLR,,0.00,WeatherDisplay:10.37,2013-11-08 02:50:00,
2013-11-07 21:55:00,66.9,66.0,29.93,WNW,292,0.0,0.0,97,0.00,CLR,,0.00,WeatherDisplay:10.37,2013-11-08 02:55:00,
2013-11-07 22:00:00,66.7,65.8,29.93,WNW,292,0.0,0.0,97,0.00,CLR,,0.00,WeatherDisplay:10.37,2013-11-08 03:00:00,
2013-11-07 22:05:00,66.7,65.8,29.92,WNW,292,0.0,0.0,97,0.00,CLR,,0.00,WeatherDisplay:10.37,2013-11-08 03:05:00,
2013-11-07 22:10:00,66.6,65.7,29.92,WNW,292,0.0,0.0,97,0.00,CLR,,0.00,WeatherDisplay:10.37,2013-11-08 03:10:00,
2013-11-07 22:15:00,66.4,65.5,29.92,WNW,292,0.0,0.0,97,0.00,CLR,,0.00,WeatherDisplay:10.37,2013-11-08 03:15:00,
2013-11-07 22:20:00,66.2,65.6,29.92,WNW,292,0.0,0.0,98,0.00,CLR,,0.00,WeatherDisplay:10.37,2013-11-08 03:20:00,
2013-11-07 22:25:00,66.0,65.4,29.92,WNW,292,0.0,0.0,98,0.00,CLR,,0.00,WeatherDisplay:10.37,2013-11-08 03:25:00,
2013-11-07 22:30:00,66.0,65.4,29.92,WNW,292,0.0,0.0,98,0.00,CLR,,0.00,WeatherDisplay:10.37,2013-11-08 03:30:00,
2013-11-07 22:35:00,65.8,65.2,29.92,WNW,292,0.0,0.0,98,0.00,CLR,,0.00,WeatherDisplay:10.37,2013-11-08 03:35:00,
2013-11-07 22:40:00,65.8,65.2,29.92,WNW,292,0.0,0.0,98,0.00,CLR,,0.00,WeatherDisplay:10.37,2013-11-08 03:40:00,
2013-11-07 22:45:00,65.8,65.5,29.92,WNW,292,0.0,0.0,99,0.00,CLR,,0.00,WeatherDisplay:10.37,2013-11-08 03:45:00,
2013-11-07 22:50:00,65.7,65.4,29.91,WNW,292,0.0,0.0,99,0.00,CLR,,0.00,WeatherDisplay:10.37,2013-11-08 03:50:00,
2013-11-07 22:55:00,65.7,65.4,29.91,WNW,292,0.0,0.0,99,0.00,CLR,,0.00,WeatherDisplay:10.37,2013-11-08 03:55:00,
2013-11-07 23:00:00,65.5,65.2,29.91,WNW,292,0.0,0.0,99,0.00,CLR,,0.00,WeatherDisplay:10.37,2013-11-08 04:00:00,
2013-11-07 23:05:00,65.5,65.2,29.91,WNW,292,0.0,0.0,99,0.00,CLR,,0.00,WeatherDisplay:10.37,2013-11-08 04:05:00,
2013-11-07 23:10:00,65.5,65.2,29.91,WNW,292,0.0,0.0,99,0.00,CLR,,0.00,WeatherDisplay:10.37,2013-11-08 04:10:00,
2013-11-07 23:15:00,65.5,65.2,29.91,WNW,292,0.0,0.0,99,0.00,CLR,,0.00,WeatherDisplay:10.37,2013-11-08 04:15:00,
2013-11-07 23:20:00,65.3,65.0,29.91,WNW,292,0.0,0.0,99,0.00,CLR,,0.00,WeatherDisplay:10.37,2013-11-08 04:20:00,
2013-11-07 23:25:00,65.1,64.8,29.91,WNW,292,0.0,0.0,99,0.00,CLR,,0.00,WeatherDisplay:10.37,2013-11-08 04:25:00,
2013-11-07 23:30:00,65.1,64.8,29.91,WNW,292,0.0,0.0,99,0.00,CLR,,0.00,WeatherDisplay:10.37,2013-11-08 04:30:00,
2013-11-07 23:35:00,64.9,64.6,29.91,WNW,292,0.0,0.0,99,0.00,CLR,,0.00,WeatherDisplay:10.37,2013-11-08 04:35:00,
2013-11-07 23:40:00,64.9,64.6,29.92,WNW,292,0.0,0.0,99,0.00,CLR,,0.00,WeatherDisplay:10.37,2013-11-08 04:40:00,
2013-11-07 23:45:00,64.9,64.6,29.92,WNW,292,0.0,0.0,99,0.00,CLR,,0.00,WeatherDisplay:10.37,2013-11-08 04:45:00,
2013-11-07 23:50:00,64.9,64.6,29.92,WNW,292,0.0,0.0,99,0.00,CLR,,0.00,WeatherDisplay:10.37,2013-11-08 04:50:00,
2013-11-07 23:55:00,64.9,64.6,29.92,WNW,292,0.0,0.0,99,0.00,CLR,,0.00,WeatherDisplay:10.37,2013-11-08 04:55:00,